User: anonymous   Login
Location: Unspecified
(0.0000°N, 0.0000°E)
Time: 15:03:23
(UTC+00:00)
Language:

UHF F/O F4 - Orbit

View from above orbital plane
View from above orbital plane
View from above satellite
View from above satellite

Ground track
Ground track

The orbit data is extracted from the following two-line orbital elements,

1 23467U 95003A   18111.01103912 0.00000000  00000-0  00000-0 0    01
2 23467   9.8748  25.3293 0007036 244.4984 115.4371  1.00270000    07
Epoch (UTC): 21 April 2018 00:15:53
Eccentricity: 0.0007036
inclination: 9.8748°
perigee height: 35757 km
apogee height: 35816 km
right ascension of ascending node: 25.3293°
argument of perigee: 244.4984°
revolutions per day: 1.00270000
mean anomaly at epoch: 115.4371°
orbit number at epoch: 0

The dashed part of the orbit path shows where the satellite is in the earth's shadow,  

DLR